OBJECT AC, 64554

Orbit data source: Space-Track

You're viewing an Uncataloged Satellite

Recently launched and/or uncataloged satellites may have evolving metadata. Metadata may include but not limited to: Owner, Maufacturer, Bus, Motor, and Mission.

OBJECT AC, 64554 is a satellite in SSO that was launched on Mon, 23 Jun 2025 UTC via an FALCON 9 launch vehicle from the Air Force Western Test Range (AFWTR). Unknown objects in Earth's orbit typically refer to objects detected orbiting the Earth but have not yet been identified or cataloged. These objects could be anything from previously untracked satellites, spent rocket stages, debris from satellite collisions, or even natural meteoroids temporarily captured by Earth's gravity.

Loading next visibility...
Identifier
64554, 2025-135AC
Orbit
SSO
Country
Flag of TBDTBD
Related business
None
Manufacturer
Unknown
Mission
Operational Commercial Imaging
Bus & Motor
Unknown
Mass
Unknown
Launch date (UTC)
2025-06-23 (7 months ago)
Launch vehicle
FALCON 9
Launch site
Air Force Western Test Range (AFWTR)
Object type
Unknown
Shape & HBR
Box, 0.1 m
Radar Cross Section
0.015 m², Small (<0.1 m²)

Expand to show TLE details & history
Last TLE update: 10 hours ago

TLE from 10 hours ago
0 OBJECT AC
1 64554U 25135AC  26035.83849891  .00023870  00000-0  94994-3 0  9994
2 64554  97.4515 152.8606 0001697  58.0841 302.0561 15.25258086 34796
Epoch: 2026-02-04T20:07Z
TLE epoch observation values (Epoch: 2026-02-04T20:07:26.305Z)
Latitude
-0.00012°
Longitude
76.00168°
Altitude
492.488 km
Speed
7.619 km/s
True Right ascension
10h 11m 26s
True Declination
0° 00' 00"
Sunlit
Object was in full shadow at epoch
Visualization orbit readout
Latitude
Unknown
Longitude
Unknown
Altitude
Unknown
Speed
Unknown
Apparent Right ascension
Unknown
Apparent Declination
Unknown
Sunlit
N/A
Visualization observer readout
Local Sidereal Time
07:53:00
Azimuth
Unknown
Elevation
Unknown
Doppler factor
Unknown
Orbital elements
Apogee altitude
488.136 km
Perigee altitude
485.806 km
Semi-major axis
6,865.108 km
Eccentricity
0.00017
Inclination
97.4515°
RAAN
152.8606°
Arg. of periapsis
58.0841°
True anomaly
302.03962°
Mean anomaly
302.0561°
Eccentric anomaly
302.04786°
Mean motion
3.81568 °/min
Orbital period
94.35 mins
BSTAR
0.00094994
Loading maneuver chart data...
Computing Atmospheric mass density...
Loading historical data...
Loading historical data...
Loading historical data...
Loading historical data...
Loading historical data...
Loading historical data...
Loading historical data...

Documentation

Showing up to 5 results
|